Flag for Germany Weather past 2 weeks in Falkensee, Brandenburg, Germany

41 °F

Partly cloudy.

Feels Like: 34 °F
Forecast: 42 / 51 °F
Wind: 13 mph from West

Location: Berlin-Tegel

Current Time: Dec 1, 2015 at 9:02:45 AM

Latest Report: Dec 1, 2015 at 7:50 AM

Visibility: N/A

Pressure: 29.98 "Hg

Humidity: 87%

Dew point: 37 °F

Location of FalkenseeLocation

Historic Weather in Falkensee — Graph


Falkensee temperature yesterday

Maximum temperature yesterday: 46 °F (at 12:50 AM)
Minimum temperature yesterday: 37 °F (at 6:50 PM)
Average temperature yesterday: 42 °F

Past Weeks' High & Low Weather Summary

High57 °F (Nov 17, 8:20 PM)100% (Nov 16, 7:20 AM)30.21 "Hg (Nov 16, 7:20 AM)
Low27 °F (Nov 23, 11:20 PM)55% (Nov 19, 12:50 PM)29.33 "Hg (Nov 21, 1:50 PM)
Average42 °F85%29.76 "Hg
* Reported Nov 16 7:20 AM — Dec 1 7:20 AM, Falkensee, Weather by CustomWeather, © 2015

Note: Actual official high and low records may vary slightly from our data, if they occured in-between our weather recording intervals... More about our weather records


Falkensee weather history for previous 24 hours

Time TempWeatherWind HumidityBarometerVisibility
7:20 AM
Tue, Dec 1
41 °FPassing clouds.13 mph93%29.98 "HgN/A
6:50 AM41 °FPassing clouds.12 mph87%29.95 "HgN/A
6:20 AM41 °FPassing clouds.13 mph87%29.95 "HgN/A
5:50 AM41 °FPassing clouds.14 mph87%29.92 "HgN/A
5:20 AM41 °FPassing clouds.12 mph87%29.92 "HgN/A
4:50 AM41 °FPassing clouds.12 mph87%29.89 "HgN/A
4:20 AM39 °FPassing clouds.12 mph93%29.86 "HgN/A
3:50 AM39 °FPassing clouds.10 mph93%29.83 "HgN/A
3:20 AM39 °FPassing clouds.10 mph93%29.80 "HgN/A
2:50 AM39 °FPassing clouds.10 mph93%29.77 "HgN/A
1:50 AM43 °FLight rain. Mostly cloudy.10 mph93%29.68 "HgN/A
12:50 AM43 °FRain. Overcast.8 mph100%29.65 "Hg5 mi
12:20 AM41 °FRain. Passing clouds.8 mph93%29.62 "Hg5 mi
11:20 PM
Mon, Nov 30
41 °FLight rain. Passing clouds.3 mph100%29.62 "Hg5 mi
10:50 PM39 °FLight rain. Passing clouds.2 mph100%29.62 "Hg5 mi
10:20 PM39 °FRain. Passing clouds.7 mph93%29.65 "Hg5 mi
9:50 PM37 °FRain. Passing clouds.5 mph100%29.68 "Hg5 mi
9:20 PM37 °FRain. Passing clouds.8 mph100%29.68 "HgN/A
8:50 PM37 °FRain. Mostly cloudy.6 mph93%29.71 "HgN/A
8:20 PM37 °FLight rain. Mostly cloudy.5 mph93%29.74 "HgN/A
7:50 PM37 °FLight rain. Mostly cloudy.8 mph93%29.77 "HgN/A
7:20 PM37 °FLight rain. Passing clouds.8 mph93%29.80 "HgN/A
6:50 PM37 °FLight rain. Partly cloudy.10 mph93%29.80 "HgN/A
6:20 PM39 °FLight rain. Partly cloudy.15 mph87%29.83 "HgN/A
5:50 PM39 °FLight rain. Partly cloudy.20 mph81%29.83 "HgN/A
5:20 PM43 °FClear.23 mph71%29.83 "Hg10 mi
4:50 PM45 °FClear.15 mph66%29.83 "Hg10 mi
4:20 PM45 °FClear.15 mph66%29.86 "Hg10 mi
3:50 PM45 °FSunny.15 mph61%29.86 "Hg10 mi
3:20 PM45 °FSunny.15 mph66%29.86 "Hg10 mi
2:50 PM45 °FPartly sunny.20 mph66%29.89 "HgN/A
2:20 PM45 °FPartly sunny.18 mph66%29.89 "HgN/A
1:50 PM45 °FPartly sunny.20 mph66%29.89 "HgN/A
1:20 PM45 °FPartly sunny.20 mph66%29.89 "HgN/A
12:50 PM45 °FPartly sunny.22 mph61%29.89 "HgN/A
12:20 PM46 °FBroken clouds.18 mph62%29.89 "HgN/A
11:50 AM45 °FBroken clouds.20 mph66%29.89 "HgN/A
11:20 AM45 °FPartly sunny.22 mph66%29.89 "HgN/A
10:50 AM45 °FScattered clouds.22 mph66%29.89 "HgN/A
10:20 AM45 °FScattered clouds.17 mph66%29.86 "HgN/A
9:50 AM43 °FScattered clouds.15 mph76%29.86 "HgN/A
9:20 AM39 °FScattered clouds.14 mph87%29.86 "HgN/A
Weather by CustomWeather, © 2015

See weather overviewHow to use our weather pages